Location: ??????????
(44.2167°N, 135.5333°E)
Time: 14:36:58
(UTC+00:00)

Cosmos 1666 - Pass Details

Date: 15 June 2025
Orbit: 127 x 149 km, 82.4° (Epoch: 15 June)

Event Time Altitude Azimuth Distance (km) Brightness Sun altitude
Exits shadow 17:50:56 20° 319° (NW) 373 2.1 -11.8°
Drops below altitude 10° 17:51:41 10° 345° (NNW) 635 3.7 -11.7°
Sets 17:53:22 0° 360° (N) 1,362 5.7 -11.5°
